Time,TemperatureF,DewpointF,PressureIn,WindDirection,WindDirectionDegrees,WindSpeedMPH,WindSpeedGustMPH,Humidity,HourlyPrecipIn,Conditions,Clouds,dailyrainin,SoftwareType,DateUTC
2013-01-30 00:04:00,58.0,54.0,30.07,South,174,4.0,-999.0,87,-99.99,,,-99.99,,2013-01-30 05:04:00,
2013-01-30 00:12:00,58.0,54.0,30.07,SE,136,6.0,-999.0,87,-99.99,,,-99.99,,2013-01-30 05:12:00,
2013-01-30 00:22:00,58.0,54.0,30.07,SE,136,6.0,-999.0,87,-99.99,,,-99.99,,2013-01-30 05:22:00,
2013-01-30 00:32:00,58.0,54.0,30.06,SSE,149,3.0,-999.0,87,-99.99,,,-99.99,,2013-01-30 05:32:00,
2013-01-30 00:43:00,58.0,54.0,30.06,SSE,149,3.0,-999.0,87,-99.99,,,-99.99,,2013-01-30 05:43:00,
2013-01-30 00:52:00,58.0,54.0,30.05,South,169,4.0,-999.0,87,-99.99,,,-99.99,,2013-01-30 05:52:00,
2013-01-30 01:02:00,58.0,54.0,30.04,South,190,7.0,-999.0,88,-99.99,,,-99.99,,2013-01-30 06:02:00,
2013-01-30 01:12:00,58.0,54.0,30.04,South,190,7.0,-999.0,88,-99.99,,,-99.99,,2013-01-30 06:12:00,
2013-01-30 01:21:00,58.0,55.0,30.03,SW,221,8.0,-999.0,89,-99.99,,,-99.99,,2013-01-30 06:21:00,
2013-01-30 01:32:00,57.0,55.0,30.02,South,184,7.0,-999.0,92,-99.99,,,-99.99,,2013-01-30 06:32:00,
2013-01-30 01:42:00,57.0,55.0,30.02,South,184,7.0,-999.0,92,-99.99,,,-99.99,,2013-01-30 06:42:00,
2013-01-30 01:52:00,57.0,55.0,30.01,SSW,192,9.0,-999.0,93,-99.99,,,-99.99,,2013-01-30 06:52:00,
2013-01-30 02:02:00,57.0,55.0,30.01,SSE,147,7.0,-999.0,93,-99.99,,,-99.99,,2013-01-30 07:02:00,
2013-01-30 02:12:00,57.0,55.0,30.01,SSE,147,7.0,-999.0,93,-99.99,,,-99.99,,2013-01-30 07:12:00,
2013-01-30 02:22:00,57.0,55.0,29.99,SW,217,8.0,-999.0,93,-99.99,,,-99.99,,2013-01-30 07:22:00,
2013-01-30 02:32:00,57.0,55.0,29.99,SW,221,9.0,-999.0,93,-99.99,,,-99.99,,2013-01-30 07:32:00,
2013-01-30 02:42:00,57.0,55.0,29.99,SW,221,9.0,-999.0,93,-99.99,,,-99.99,,2013-01-30 07:42:00,
2013-01-30 02:52:00,57.0,55.0,29.99,South,187,10.0,-999.0,93,-99.99,,,-99.99,,2013-01-30 07:52:00,
2013-01-30 03:02:00,57.0,55.0,29.98,WSW,244,11.0,-999.0,93,-99.99,,,-99.99,,2013-01-30 08:02:00,
2013-01-30 03:11:00,57.0,55.0,29.98,WSW,244,11.0,-999.0,93,-99.99,,,-99.99,,2013-01-30 08:11:00,
2013-01-30 03:22:00,58.0,56.0,29.98,SSW,201,11.0,-999.0,92,-99.99,,,-99.99,,2013-01-30 08:22:00,
2013-01-30 03:32:00,57.0,55.0,29.97,SSW,211,9.0,-999.0,93,-99.99,,,-99.99,,2013-01-30 08:32:00,
2013-01-30 03:42:00,57.0,55.0,29.97,SSW,211,9.0,-999.0,93,-99.99,,,-99.99,,2013-01-30 08:42:00,
2013-01-30 03:52:00,57.0,55.0,29.96,SW,215,10.0,-999.0,93,-99.99,,,-99.99,,2013-01-30 08:52:00,
2013-01-30 04:02:00,57.0,55.0,29.93,WSW,246,12.0,-999.0,93,-99.99,,,-99.99,,2013-01-30 09:02:00,
2013-01-30 04:11:00,57.0,55.0,29.93,WSW,246,12.0,-999.0,93,-99.99,,,-99.99,,2013-01-30 09:11:00,
2013-01-30 04:22:00,58.0,56.0,29.93,WSW,242,12.0,-999.0,93,-99.99,,,-99.99,,2013-01-30 09:22:00,
2013-01-30 04:32:00,58.0,55.0,29.93,WSW,244,16.0,-999.0,89,-99.99,,,-99.99,,2013-01-30 09:32:00,
2013-01-30 04:42:00,58.0,55.0,29.93,WSW,244,16.0,-999.0,89,-99.99,,,-99.99,,2013-01-30 09:42:00,
2013-01-30 04:51:00,58.0,55.0,29.93,WSW,238,18.0,-999.0,89,-99.99,,,-99.99,,2013-01-30 09:51:00,
2013-01-30 05:02:00,58.0,55.0,29.93,WSW,248,13.0,-999.0,90,-99.99,,,-99.99,,2013-01-30 10:02:00,
2013-01-30 05:12:00,58.0,55.0,29.93,WSW,248,13.0,-999.0,90,-99.99,,,-99.99,,2013-01-30 10:12:00,
2013-01-30 05:21:00,59.0,55.0,29.92,WSW,254,14.0,-999.0,88,-99.99,,,-99.99,,2013-01-30 10:21:00,
2013-01-30 05:32:00,59.0,55.0,29.91,SW,222,13.0,-999.0,88,-99.99,,,-99.99,,2013-01-30 10:32:00,
2013-01-30 05:42:00,59.0,55.0,29.91,SW,222,13.0,-999.0,88,-99.99,,,-99.99,,2013-01-30 10:42:00,
2013-01-30 05:52:00,59.0,55.0,29.91,SW,222,13.0,-999.0,88,-99.99,,,-99.99,,2013-01-30 10:52:00,
2013-01-30 06:02:00,59.0,55.0,29.90,SW,224,12.0,-999.0,86,-99.99,,,-99.99,,2013-01-30 11:02:00,
2013-01-30 06:11:00,59.0,55.0,29.90,SW,224,12.0,-999.0,86,-99.99,,,-99.99,,2013-01-30 11:11:00,
2013-01-30 06:22:00,59.0,55.0,29.90,SW,224,12.0,-999.0,86,-99.99,,,-99.99,,2013-01-30 11:22:00,
2013-01-30 06:33:00,59.0,55.0,29.88,SW,217,11.0,-999.0,87,-99.99,,,-99.99,,2013-01-30 11:33:00,
2013-01-30 06:42:00,59.0,55.0,29.88,SW,217,11.0,-999.0,87,-99.99,,,-99.99,,2013-01-30 11:42:00,
2013-01-30 06:52:00,58.0,55.0,29.88,SW,221,11.0,-999.0,90,-99.99,,,-99.99,,2013-01-30 11:52:00,
2013-01-30 07:02:00,58.0,55.0,29.88,SW,220,11.0,-999.0,91,-99.99,,,-99.99,,2013-01-30 12:02:00,
2013-01-30 07:13:00,58.0,55.0,29.88,SW,220,11.0,-999.0,91,-99.99,,,-99.99,,2013-01-30 12:13:00,
2013-01-30 07:22:00,58.0,55.0,29.87,SSW,209,14.0,-999.0,90,-99.99,,,-99.99,,2013-01-30 12:22:00,
2013-01-30 07:33:00,58.0,55.0,29.86,SSW,200,11.0,-999.0,90,-99.99,,,-99.99,,2013-01-30 12:33:00,
2013-01-30 07:43:00,58.0,55.0,29.86,SSW,200,11.0,-999.0,90,-99.99,,,-99.99,,2013-01-30 12:43:00,
2013-01-30 08:03:00,58.0,55.0,29.84,South,169,7.0,-999.0,91,-99.99,,,-99.99,,2013-01-30 13:03:00,
2013-01-30 08:12:00,58.0,55.0,29.84,South,169,7.0,-999.0,91,-99.99,,,-99.99,,2013-01-30 13:12:00,
2013-01-30 08:23:00,58.0,55.0,29.84,SSW,207,10.0,-999.0,91,-99.99,,,-99.99,,2013-01-30 13:23:00,
2013-01-30 08:33:00,59.0,56.0,29.84,WNW,286,14.0,-999.0,90,-99.99,,,-99.99,,2013-01-30 13:33:00,
2013-01-30 08:43:00,59.0,56.0,29.84,WNW,286,14.0,-999.0,90,-99.99,,,-99.99,,2013-01-30 13:43:00,
2013-01-30 08:52:00,59.0,56.0,29.82,SSW,209,12.0,-999.0,89,-99.99,,,-99.99,,2013-01-30 13:52:00,
2013-01-30 09:03:00,59.0,56.0,29.82,SSW,213,9.0,-999.0,90,-99.99,,,-99.99,,2013-01-30 14:03:00,
2013-01-30 09:12:00,59.0,56.0,29.82,SSW,213,9.0,-999.0,90,-99.99,,,-99.99,,2013-01-30 14:12:00,
2013-01-30 09:23:00,59.0,56.0,29.80,SSW,204,9.0,-999.0,91,-99.99,,,-99.99,,2013-01-30 14:23:00,
2013-01-30 09:33:00,59.0,56.0,29.81,WSW,241,11.0,-999.0,90,-99.99,,,-99.99,,2013-01-30 14:33:00,
2013-01-30 09:42:00,59.0,56.0,29.81,WSW,241,11.0,-999.0,90,-99.99,,,-99.99,,2013-01-30 14:42:00,
2013-01-30 09:52:00,60.0,56.0,29.82,SW,227,13.0,-999.0,88,-99.99,,,-99.99,,2013-01-30 14:52:00,
2013-01-30 10:03:00,60.0,56.0,29.82,SSW,211,12.0,-999.0,88,-99.99,,,-99.99,,2013-01-30 15:03:00,
2013-01-30 10:12:00,60.0,56.0,29.82,SSW,211,12.0,-999.0,88,-99.99,,,-99.99,,2013-01-30 15:12:00,
2013-01-30 10:23:00,60.0,56.0,29.80,SW,236,12.0,-999.0,88,-99.99,,,-99.99,,2013-01-30 15:23:00,
2013-01-30 10:33:00,60.0,56.0,29.81,SSW,212,12.0,-999.0,88,-99.99,,,-99.99,,2013-01-30 15:33:00,
2013-01-30 10:43:00,60.0,56.0,29.81,SSW,212,12.0,-999.0,88,-99.99,,,-99.99,,2013-01-30 15:43:00,
2013-01-30 10:53:00,60.0,57.0,29.79,SW,223,11.0,-999.0,89,-99.99,,,-99.99,,2013-01-30 15:53:00,
2013-01-30 11:03:00,60.0,57.0,29.80,South,174,13.0,-999.0,89,-99.99,,,-99.99,,2013-01-30 16:03:00,
2013-01-30 11:12:00,60.0,57.0,29.80,South,174,13.0,-999.0,89,-99.99,,,-99.99,,2013-01-30 16:12:00,
2013-01-30 11:23:00,60.0,57.0,29.78,SSW,205,13.0,-999.0,89,-99.99,,,-99.99,,2013-01-30 16:23:00,
2013-01-30 11:32:00,60.0,57.0,29.77,SSW,205,13.0,-999.0,90,-99.99,,,-99.99,,2013-01-30 16:32:00,
2013-01-30 11:42:00,60.0,57.0,29.77,SSW,205,13.0,-999.0,90,-99.99,,,-99.99,,2013-01-30 16:42:00,
2013-01-30 11:52:00,60.0,57.0,29.77,SSW,205,13.0,-999.0,90,-99.99,,,-99.99,,2013-01-30 16:52:00,
2013-01-30 12:02:00,60.0,57.0,29.75,SSE,162,9.0,-999.0,91,-99.99,,,-99.99,,2013-01-30 17:02:00,
2013-01-30 12:13:00,60.0,57.0,29.75,SSE,162,9.0,-999.0,91,-99.99,,,-99.99,,2013-01-30 17:13:00,
2013-01-30 12:23:00,60.0,58.0,29.75,SSW,192,9.0,-999.0,92,-99.99,,,-99.99,,2013-01-30 17:23:00,
2013-01-30 12:33:00,59.0,57.0,29.72,South,182,8.0,-999.0,93,-99.99,,,-99.99,,2013-01-30 17:33:00,
2013-01-30 12:43:00,59.0,57.0,29.72,South,182,8.0,-999.0,93,-99.99,,,-99.99,,2013-01-30 17:43:00,
2013-01-30 12:53:00,59.0,57.0,29.72,SSE,168,9.0,-999.0,93,-99.99,,,-99.99,,2013-01-30 17:53:00,
2013-01-30 13:03:00,59.0,57.0,29.70,WSW,240,9.0,-999.0,94,-99.99,,,-99.99,,2013-01-30 18:03:00,
2013-01-30 13:13:00,59.0,57.0,29.70,WSW,240,9.0,-999.0,94,-99.99,,,-99.99,,2013-01-30 18:13:00,
2013-01-30 13:23:00,59.0,57.0,29.70,SSW,206,12.0,-999.0,92,-99.99,,,-99.99,,2013-01-30 18:23:00,
2013-01-30 13:33:00,60.0,58.0,29.69,SSW,194,11.0,-999.0,92,-99.99,,,-99.99,,2013-01-30 18:33:00,
2013-01-30 13:43:00,60.0,58.0,29.69,SSW,194,11.0,-999.0,92,-99.99,,,-99.99,,2013-01-30 18:43:00,
2013-01-30 13:52:00,60.0,58.0,29.67,SW,226,11.0,-999.0,92,-99.99,,,-99.99,,2013-01-30 18:52:00,
2013-01-30 14:03:00,59.0,57.0,29.67,SSW,205,10.0,-999.0,93,-99.99,,,-99.99,,2013-01-30 19:03:00,
2013-01-30 14:13:00,59.0,57.0,29.67,SSW,205,10.0,-999.0,93,-99.99,,,-99.99,,2013-01-30 19:13:00,
2013-01-30 14:22:00,59.0,57.0,29.66,South,174,12.0,-999.0,92,-99.99,,,-99.99,,2013-01-30 19:22:00,
2013-01-30 14:33:00,59.0,57.0,29.64,SSW,213,9.0,-999.0,93,-99.99,,,-99.99,,2013-01-30 19:33:00,
2013-01-30 14:43:00,59.0,57.0,29.64,SSW,213,9.0,-999.0,93,-99.99,,,-99.99,,2013-01-30 19:43:00,
2013-01-30 14:52:00,59.0,57.0,29.63,SW,229,8.0,-999.0,93,-99.99,,,-99.99,,2013-01-30 19:52:00,
2013-01-30 15:03:00,59.0,57.0,29.62,South,182,8.0,-999.0,93,-99.99,,,-99.99,,2013-01-30 20:03:00,
2013-01-30 15:12:00,59.0,57.0,29.62,South,182,8.0,-999.0,93,-99.99,,,-99.99,,2013-01-30 20:12:00,
2013-01-30 15:22:00,59.0,57.0,29.62,SSW,204,7.0,-999.0,94,-99.99,,,-99.99,,2013-01-30 20:22:00,
2013-01-30 15:33:00,60.0,58.0,29.62,SW,221,10.0,-999.0,92,-99.99,,,-99.99,,2013-01-30 20:33:00,
2013-01-30 15:42:00,60.0,58.0,29.62,SW,221,10.0,-999.0,92,-99.99,,,-99.99,,2013-01-30 20:42:00,
2013-01-30 15:52:00,60.0,57.0,29.64,WNW,293,10.0,-999.0,91,-99.99,,,-99.99,,2013-01-30 20:52:00,
2013-01-30 16:04:00,54.0,52.0,29.65,NW,318,11.0,-999.0,92,-99.99,,,-99.99,,2013-01-30 21:04:00,
2013-01-30 16:12:00,54.0,52.0,29.65,NW,318,11.0,-999.0,92,-99.99,,,-99.99,,2013-01-30 21:12:00,
2013-01-30 16:23:00,53.0,51.0,29.63,West,277,5.0,-999.0,94,-99.99,,,-99.99,,2013-01-30 21:23:00,
2013-01-30 16:32:00,53.0,52.0,29.62,WNW,291,1.0,-999.0,96,-99.99,,,-99.99,,2013-01-30 21:32:00,
2013-01-30 16:42:00,53.0,52.0,29.62,WNW,291,1.0,-999.0,96,-99.99,,,-99.99,,2013-01-30 21:42:00,
2013-01-30 16:52:00,53.0,52.0,29.63,WNW,291,1.0,-999.0,96,-99.99,,,-99.99,,2013-01-30 21:52:00,
2013-01-30 17:03:00,53.0,52.0,29.61,WNW,291,1.0,-999.0,97,-99.99,,,-99.99,,2013-01-30 22:03:00,
2013-01-30 17:12:00,53.0,52.0,29.61,WNW,291,1.0,-999.0,97,-99.99,,,-99.99,,2013-01-30 22:12:00,
2013-01-30 17:22:00,53.0,52.0,29.59,ENE,69,1.0,-999.0,97,-99.99,,,-99.99,,2013-01-30 22:22:00,
2013-01-30 17:32:00,52.0,51.0,29.60,SE,126,2.0,-999.0,97,-99.99,,,-99.99,,2013-01-30 22:32:00,
2013-01-30 17:42:00,52.0,51.0,29.60,SE,126,2.0,-999.0,97,-99.99,,,-99.99,,2013-01-30 22:42:00,
2013-01-30 17:52:00,52.0,51.0,29.59,SE,126,2.0,-999.0,97,-99.99,,,-99.99,,2013-01-30 22:52:00,
2013-01-30 18:02:00,52.0,51.0,29.58,SE,143,3.0,-999.0,97,-99.99,,,-99.99,,2013-01-30 23:02:00,
2013-01-30 18:12:00,52.0,51.0,29.58,SE,143,3.0,-999.0,97,-99.99,,,-99.99,,2013-01-30 23:12:00,
2013-01-30 18:22:00,52.0,51.0,29.57,SE,134,2.0,-999.0,98,-99.99,,,-99.99,,2013-01-30 23:22:00,
2013-01-30 18:33:00,52.0,51.0,29.54,NNW,328,3.0,-999.0,98,-99.99,,,-99.99,,2013-01-30 23:33:00,
2013-01-30 18:42:00,52.0,51.0,29.54,NNW,328,3.0,-999.0,98,-99.99,,,-99.99,,2013-01-30 23:42:00,
2013-01-30 18:52:00,52.0,51.0,29.52,ESE,112,1.0,-999.0,98,-99.99,,,-99.99,,2013-01-30 23:52:00,
2013-01-30 19:02:00,52.0,51.0,29.52,ESE,113,1.0,-999.0,98,-99.99,,,-99.99,,2013-01-31 00:02:00,
2013-01-30 19:11:00,52.0,51.0,29.52,ESE,113,1.0,-999.0,98,-99.99,,,-99.99,,2013-01-31 00:11:00,
2013-01-30 19:22:00,52.0,51.0,29.51,WNW,302,1.0,-999.0,98,-99.99,,,-99.99,,2013-01-31 00:22:00,
2013-01-30 19:32:00,52.0,51.0,29.50,West,281,4.0,-999.0,98,-99.99,,,-99.99,,2013-01-31 00:32:00,
2013-01-30 19:42:00,52.0,51.0,29.50,West,281,4.0,-999.0,98,-99.99,,,-99.99,,2013-01-31 00:42:00,
2013-01-30 19:53:00,54.0,53.0,29.51,WSW,252,10.0,-999.0,97,-99.99,,,-99.99,,2013-01-31 00:53:00,
2013-01-30 20:02:00,55.0,53.0,29.49,WNW,290,6.0,-999.0,94,-99.99,,,-99.99,,2013-01-31 01:02:00,
2013-01-30 20:12:00,55.0,53.0,29.49,WNW,290,6.0,-999.0,94,-99.99,,,-99.99,,2013-01-31 01:12:00,
2013-01-30 20:22:00,54.0,53.0,29.50,NNW,335,6.0,-999.0,96,-99.99,,,-99.99,,2013-01-31 01:22:00,
2013-01-30 20:32:00,53.0,52.0,29.50,NNW,348,9.0,-999.0,95,-99.99,,,-99.99,,2013-01-31 01:32:00,
2013-01-30 20:42:00,53.0,52.0,29.50,NNW,348,9.0,-999.0,95,-99.99,,,-99.99,,2013-01-31 01:42:00,
2013-01-30 20:52:00,51.0,48.0,29.50,WNW,300,14.0,-999.0,91,-99.99,,,-99.99,,2013-01-31 01:52:00,
2013-01-30 21:01:00,49.0,46.0,29.48,NNW,333,14.0,-999.0,90,-99.99,,,-99.99,,2013-01-31 02:01:00,
2013-01-30 21:12:00,49.0,46.0,29.48,NNW,333,14.0,-999.0,90,-99.99,,,-99.99,,2013-01-31 02:12:00,
2013-01-30 21:22:00,47.0,44.0,29.52,NNW,327,17.0,-999.0,89,-99.99,,,-99.99,,2013-01-31 02:22:00,
2013-01-30 21:32:00,46.0,43.0,29.52,NW,310,19.0,-999.0,89,-99.99,,,-99.99,,2013-01-31 02:32:00,
2013-01-30 21:42:00,46.0,43.0,29.52,NW,310,19.0,-999.0,89,-99.99,,,-99.99,,2013-01-31 02:42:00,
2013-01-30 21:52:00,46.0,43.0,29.52,NW,310,19.0,-999.0,89,-99.99,,,-99.99,,2013-01-31 02:52:00,
2013-01-30 22:03:00,44.0,41.0,29.52,NW,310,22.0,-999.0,88,-99.99,,,-99.99,,2013-01-31 03:03:00,
2013-01-30 22:11:00,44.0,41.0,29.52,NW,310,22.0,-999.0,88,-99.99,,,-99.99,,2013-01-31 03:11:00,
2013-01-30 22:22:00,44.0,42.0,29.51,WNW,298,15.0,-999.0,91,-99.99,,,-99.99,,2013-01-31 03:22:00,
2013-01-30 22:32:00,44.0,41.0,29.51,NW,317,19.0,-999.0,90,-99.99,,,-99.99,,2013-01-31 03:32:00,
2013-01-30 22:42:00,44.0,41.0,29.51,NW,317,19.0,-999.0,90,-99.99,,,-99.99,,2013-01-31 03:42:00,
2013-01-30 22:51:00,44.0,41.0,29.52,NW,306,12.0,-999.0,90,-99.99,,,-99.99,,2013-01-31 03:51:00,
2013-01-30 23:02:00,44.0,41.0,29.50,WSW,242,8.0,-999.0,89,-99.99,,,-99.99,,2013-01-31 04:02:00,
2013-01-30 23:11:00,44.0,41.0,29.50,WSW,242,8.0,-999.0,89,-99.99,,,-99.99,,2013-01-31 04:11:00,
2013-01-30 23:22:00,44.0,40.0,29.49,West,261,9.0,-999.0,86,-99.99,,,-99.99,,2013-01-31 04:22:00,
2013-01-30 23:32:00,44.0,40.0,29.49,NW,319,11.0,-999.0,86,-99.99,,,-99.99,,2013-01-31 04:32:00,
2013-01-30 23:42:00,44.0,40.0,29.49,NW,319,11.0,-999.0,86,-99.99,,,-99.99,,2013-01-31 04:42:00,
2013-01-30 23:51:00,44.0,40.0,29.52,West,261,11.0,-999.0,87,-99.99,,,-99.99,,2013-01-31 04:51:00,